www.pogodaiklimat.ru

Погода и климат >> Архив погоды >> Индия >> Keongjhargarh


ПОГОДА в Keongjhargarh

  • Прогноз погоды в Keongjhargarh
  • Монитор погоды в Keongjhargarh
  • Климат города

АРХИВ ПОГОДЫ в Keongjhargarh

Время (UTC), дата Ветер
(напр.,м/с)
 
Видим.   Явления Облачность Т
(С)
Тd
(С)
f
(%)
Тe
(С)
Тes
(С)
Комфортность P
(гПа)
Po
(гПа)
Тmin
(С)
Tmax
(С)
R
(мм)
R24
(мм)
S
(см)
03 11.07 штиль 0 4000 м 8/4 600 м
[Sc diur, vesp Ac trans Ci sp]
+28.0 +24.7 82 +40 +46 очень
душно
999.5 1000.0 +24.1 13
06 11.07 штиль 0 4000 м слабый дождь 9/5 600 м
[Frnb As op]
+29.6 +24.9 76 +42 +48 опасность
перегрева
998.6 999.0 0.0
09 11.07 штиль 0 4000 м гроза без осадков {дождь} 10/5 600 м
[Cb cap As op]
+28.2 +25.2 84 +41 +43 опасность
перегрева
996.7 997.0 0.8
12 11.07 штиль 0 4000 м в посл. час дождь {гроза} 10/6 600 м
[Frnb As op]
+26.4 +25.8 97 +39 +39 очень
душно
998.2 998.0 +31.0 5
03 12.07 штиль 0 4000 м 10/8 300 м
[Frnb As op]
+26.4 +25.3 94 +38 +39 очень
душно
998.4 998.0 +23.9 5
06 12.07 штиль 0 4000 м в посл. час дождь 10/6 600 м
[Frnb As op]
+27.0 +24.8 88 +39 +41 очень
душно
998.3 998.0 1
09 12.07 штиль 0 4000 м в посл. час гроза {дождь} 10/6 600 м
[Frnb As op]
+27.6 +25.4 88 +40 +42 очень
душно
996.4 996.0 1
12 12.07 штиль 0 4000 м {гроза, дождь} 10/6 600 м
[Frnb As op]
+27.8 +25.6 88 +41 +41 опасность
перегрева
995.6 996.0 +28.1 1
03 13.07 штиль 0 4000 м 10/6 600 м
[Frnb As op]
+26.6 +25.2 92 +38 +40 очень
душно
998.5 999.0 +24.3 1
06 13.07 штиль 0 4000 м в посл. час дождь 9/6 600 м
[Frnb As op]
+29.6 +26.3 82 +45 +50 опасность
перегрева
997.9 998.0
09 13.07 штиль 0 4000 м 10/6 600 м
[Frnb As op]
+30.0 +25.6 77 +44 +46 опасность
перегрева
995.9 996.0 0.7
12 13.07 штиль 0 4000 м 8/6 600 м
[St As trans]
+28.4 +25.4 84 +42 +42 опасность
перегрева
995.5 996.0 +31.2 0.7
03 14.07 штиль 0 4000 м 8/5 600 м
[St As trans]
+28.0 +25.2 85 +41 +45 опасность
перегрева
997.6 998.0 +24.3 1
06 14.07 штиль 0 4000 м 8/5 600 м
[Cb calv As trans]
+30.8 +24.1 68 +43 +52 опасность
перегрева
996.5 997.0
09 14.07 штиль 0 4000 м в посл. час дождь 6/4 600 м
[St As trans]
+28.8 +26.3 86 +44 +53 опасность
перегрева
994.8 995.0 16
12 14.07 штиль 0 4000 м слабая морось {дождь} 10/6 600 м
[Frnb As op]
+28.2 +25.4 85 +41 +41 опасность
перегрева
994.3 994.0 +30.8 17
03 15.07 штиль 0 2000 м слабый дождь 10/6 300 м
[Frnb As op]
+25.0 +25.0 100 +36 +37 очень
душно
996.5 997.0 +23.8 31
06 15.07 СЗ 1 4000 м в посл. час дождь 10/6 600 м
[Frnb As op]
+28.0 +25.2 85 +41 +43 опасность
перегрева
995.2 995.0 1
09 15.07 штиль 0 4000 м {дождь} 9/5 600 м
[St As trans]
+28.0 +25.5 86 +41 +46 опасность
перегрева
993.8 994.0 6
12 15.07 штиль 0 4000 м слабый дождь {гроза} 10/6 600 м
[Frnb As op]
+25.6 +25.0 96 +36 +37 очень
душно
993.7 994.0 +28.6 15
03 16.07 штиль 0 4000 м в посл. час дождь 9/6 600 м
[Frnb As op]
+26.2 +25.6 97 +39 +41 очень
душно
996.1 996.0 +23.7 17
06 16.07 С 1 4000 м в посл. час дождь 10/6 600 м
[Frnb As op]
+27.0 +25.1 89 +39 +41 очень
душно
996.0 996.0 1
09 16.07 штиль 0 4000 м 10/6 600 м
[St As trans]
+28.6 +25.6 84 +42 +45 опасность
перегрева
993.8 994.0 1
12 16.07 Ю 1 2000 м слабый дождь 10/6 300 м
[Frnb As op]
+25.0 +24.1 95 +34 +35 очень
душно
995.2 995.0 +28.7 2
03 17.07 ЮЗ 1 4000 м 8/5 300 м
[St As trans]
+26.6 +23.8 85 +37 +41 очень
душно
997.4 997.0 +22.9 10
06 17.07 штиль 0 4000 м 9/6 600 м
[Frnb As op]
+27.6 +24.5 83 +39 +44 очень
душно
997.8 998.0
09 17.07 штиль 0 4000 м слабый дождь 10/6 600 м
[Frnb As op]
+29.0 +24.8 78 +41 +43 опасность
перегрева
996.2 996.0 0.2
12 17.07 штиль 0 4000 м в посл. час дождь 10/6 600 м
[Frnb As op]
+26.0 +24.6 92 +37 +37 очень
душно
996.3 996.0 +29.4 0.6

 

Местоположение метеостанции Keongjhargarh (Orissa, Индия): широта 21.62 долгота 85.52 высота над уровнем моря 463 м.

В архиве по умолчанию представлена погода в Keongjhargarh за последнюю неделю. Архивные данные за месяц целиком и за предыдущие месяцы, начиная с января 2011 года, Вы можете получить, выбрав интересующий диапазон дат из раскрывающегося списка и нажав кнопку "Ввод!".


*Определитесь, кто Вы:
робот инопланетянин человек

Внимание! Время в таблицах - всемирное. Для получения местного времени необходимо прибавить поправку, которая в Keongjhargarh равна 5.5 ч.

Смотрите также архив погоды в соседних городах и на ближайших метеорологических станциях:

Погода в Angul (Orissa, Индия) (98 км)
Погода в Chaibasa (Jharkhand, Индия) (108 км)
Погода в Baripada (Orissa, Индия) (134 км)
Погода в Cuttack (Orissa, Индия) (135 км)
Погода в Balasore (Orissa, Индия) (146 км)
Погода в Jamshedpur (Jharkhand, Индия) (150 км)
Погода в Jharsuguda (Orissa, Индия) (152 км)
Погода в Bhubaneswar (Orissa, Индия) (156 км)
Погода в Chandbali (Orissa, Индия) (156 км)
Погода в Sambalpur (Orissa, Индия) (161 км)

Пояснения к столбцам:

Ветер - указаны скорость ветра в м/с - средняя за 10 мин, порывы в срок и между сроками (в фигурных скобках) и направление, откуда дует ветер: С - северный, СВ - северо-восточный, В - восточный, ЮВ - юго-восточный, Ю - южный, ЮЗ - юго-западный, З - западный, СЗ - северо-западный.
Видимость - горизонтальная дальность видимости в метрах или километрах. При видимости от 1 до 10 км при отсутствии осадков обычно наблюдается дымка, при ухудшении видимости до 1 км и менее - туман. В сухую погоду видимость может ухудшаться дымом, пылью или мглою.
Явления - указаны атмосферные явления, наблюдавшиеся в срок или в последний час перед сроком; фигурными скобками обозначены явления, наблюдавшиеся между сроками (за 1-3 часа до срока); квадратными скобками обозначены град или гололедные отложения с указанием их диаметра в мм.
Облачность - указаны через наклонную черту общая и нижняя облачность в баллах и высота нижней границы облаков в метрах; квадратными скобками обозначены формы облаков: Ci - перистые, Cs - перисто-слоистые, Cc - перисто-кучевые, Ac - высококучевые, As - высокослоистые, Sc - слоисто-кучевые, Ns - слоисто-дождевые, Cu - кучевые, Cb - кучево-дождевые. Подробнее классификацию облаков см. в Атласе облаков (PDF).
T - Температура воздуха - температура, измеренная на высоте 2 м над землей.
Td - Температура точки росы - температура, при понижении до которой содержащийся в воздухе водяной пар достигнет насыщения.
f - Относительная влажность воздуха - влажноcть воздуха, измеренная на высоте 2 м над землей.
Te - Эффективная температура - температура, которую ощущает одетый по сезону человек в тени. Характеристика душности погоды. При расчете учитывается влияние влажности воздуха и скорости ветра на теплоощущения человека.
Tes - Эффективная температура на солнце - температура, которую ощущает человек, с поправкой на солнечный нагрев. Характеристика знойности погоды. Зависит от высоты солнца над горизонтом, облачности и скорости ветра. Ночью, в пасмурную погоду, а также при ветре 12 м/с и более поправка равна нулю.
P - Атмосферное давление - приведенное к уровню моря атмосферное давление.
Po - Атмосферное давление - измеренное на уровне метеостанции атмосферное давление.
Tmin - Минимальная температура - минимум температуры воздуха на высоте 2 м над землей.
Tmax - Максимальная температура - максимум температуры воздуха на высоте 2 м над землей.
R - Количество осадков - Количество выпавших осадков за период времени, мм. При наведении курсора мыши на число - период времени, за который выпало указанное количество осадков.
R24 - Количество осадков - Количество выпавших осадков за 24 часа, мм.
S - Снежный покров - Высота снежного покрова, см. При наведении курсора мыши на число - состояние снежного покрова и степень покрытия местности в баллах.